Wind_Speed
11 11 11 9 9 8 6 6 8 9 9 10 11 13 14 15 17 19 19 19 19 17 17 16 14 13 13 12 12 13 14 14 15 16 17 18 19 20 22 22 23 23 24 24
10 10 10 9 8 8 7 8 9 9 8 9 10 10 11 12 14 16 16 16 16 15 14 13 12 12 11 11 11 12 13 14 15 17 18 20 21 22 23 23 23 24 24 24
8 8 9 8 8 7 7 7 8 8 8 8 9 9 9 8 8 8 10 10 10 10 10 9 9 9 9 10 12 13 15 16 17 19 20 21 22 23 23 24 24 24 24 24
7 8 8 8 8 7 7 7 7 7 8 8 9 10 9 6 4 4 4 4 5 6 5 6 7 8 9 11 13 15 16 18 20 21 22 22 23 23 24 24 24 24 24 24
7 8 8 8 8 7 6 6 7 6 6 7 8 9 8 6 3 1 2 2 2 3 5 6 8 9 11 13 15 17 18 19 20 21 22 22 23 23 24 24 24 24 24 24
8 8 7 7 7 6 6 6 6 6 7 7 7 8 8 7 5 3 2 2 3 4 6 8 10 11 13 15 16 18 19 20 20 21 21 22 23 23 23 23 23 24 24 25
9 8 7 7 7 6 6 5 6 7 8 8 7 6 7 7 6 5 5 5 5 7 8 10 12 13 14 16 17 19 20 20 21 21 21 22 22 23 23 23 24 24 25 25
7 8 9 7 7 7 6 4 3 3 5 7 8 7 8 7 7 7 7 7 7 9 10 12 13 14 15 17 18 19 20 20 21 21 22 22 22 23 23 23 24 24 25 26
7 9 9 8 8 7 6 4 4 5 6 7 8 9 9 8 8 8 8 8 9 10 12 13 15 15 16 17 18 19 20 20 21 21 21 22 22 22 22 23 24 25 26 27
9 9 10 9 9 9 7 7 6 4 4 5 8 9 10 10 9 9 9 10 11 12 13 15 16 17 17 18 18 19 20 20 21 21 21 22 22 23 23 24 26 26 27 28
9 9 10 10 10 10 9 9 8 6 6 4 6 10 11 10 10 10 10 11 12 13 14 15 16 16 17 17 18 19 20 20 21 21 22 23 23 24 25 27 28 29 30 31
9 8 9 11 11 11 10 9 8 7 9 8 7 11 12 12 11 11 11 12 13 14 15 15 16 16 17 17 18 19 20 21 21 22 23 24 25 26 28 29 30 31 32 33
10 9 7 9 11 12 11 10 10 10 10 10 8 12 14 12 11 11 12 13 14 14 15 15 15 16 17 18 19 20 21 21 22 23 24 25 27 28 30 31 32 33 34 35
12 11 9 9 11 13 12 12 12 12 11 12 12 13 14 13 12 12 13 13 14 14 15 15 15 16 17 19 20 21 22 22 23 24 25 27 29 31 32 33 34 35 37 37
14 13 13 13 13 13 13 13 14 13 13 13 13 14 14 14 13 13 14 14 14 14 14 15 16 17 18 20 21 22 23 24 25 26 27 29 31 33 34 35 37 38 39 40
16 15 15 14 14 14 13 13 14 13 13 14 14 14 14 14 14 14 14 14 14 14 15 16 17 18 20 21 22 23 24 25 26 27 29 31 33 35 36 37 39 40 41 41
17 16 15 14 15 15 12 13 13 13 13 13 13 15 15 15 15 15 15 15 15 15 16 17 18 20 21 22 23 24 25 26 27 29 31 33 35 36 38 39 40 41 42 43
16 16 15 14 14 13 12 13 12 11 13 13 14 15 16 16 16 16 15 15 16 16 17 18 20 21 22 24 25 25 26 27 29 30 32 34 36 38 39 41 42 43 44 44
16 16 15 14 14 13 13 14 13 13 13 15 15 17 17 17 17 17 16 16 17 17 18 20 21 23 24 25 26 26 27 28 30 31 33 35 37 39 41 43 44 45 45 44
18 17 16 15 15 14 15 17 15 15 15 18 18 19 19 18 18 18 18 17 18 19 20 22 23 25 26 27 27 27 28 29 31 33 35 37 39 41 42 44 45 45 45 44
20 19 19 18 17 15 20 18 17 17 19 21 21 21 20 20 19 20 20 20 20 21 22 24 25 27 27 28 29 29 30 30 32 34 37 39 41 43 44 46 46 46 45 44
21 22 22 21 19 20 23 20 20 21 22 22 22 22 22 22 22 22 22 23 24 24 25 26 28 29 29 29 30 31 31 33 35 37 39 41 43 45 46 47 47 46 45 44
24 25 25 24 24 26 24 23 23 23 23 24 24 24 24 24 24 25 25 26 27 28 28 29 30 31 31 32 32 33 34 35 37 39 41 43 45 46 47 48 47 46 44 43
27 26 26 26 27 26 26 25 25 25 25 26 26 27 27 27 28 28 28 29 30 31 32 32 33 34 34 34 34 35 36 37 39 42 44 45 47 47 48 48 47 46 44 42
27 26 26 26 27 27 28 27 27 27 27 28 29 29 30 30 30 31 31 32 33 34 34 35 36 37 37 38 38 38 38 40 43 45 46 47 48 49 48 48 47 46 44 42
26 27 27 28 28 28 29 29 29 30 30 31 31 32 32 33 33 33 34 34 35 36 37 38 40 40 40 42 42 41 42 43 45 47 48 49 50 49 48 48 46 45 43 41
Wind_Direction
4 1 359 354 359 355 347 334 325 315 306 296 286 277 270 265 259 254 253 255 257 259 266 271 277 284 288 293 297 299 301 302 303 305 305 305 305 304 302 301 299 296 294 292
359 353 346 344 349 349 345 336 327 321 315 311 304 294 285 272 264 256 256 255 251 254 264 270 277 287 292 296 301 306 310 311 310 310 309 309 308 306 305 302 301 299 297 294
344 336 338 341 342 339 337 331 329 331 329 327 325 322 313 290 272 257 251 251 245 249 264 279 288 296 301 304 310 316 317 316 314 313 312 311 309 308 307 305 303 301 299 297
329 330 332 336 336 334 325 326 330 333 337 337 343 338 338 327 288 253 232 234 241 255 277 300 307 311 311 314 318 319 318 317 316 314 313 312 312 310 310 308 307 305 303 300
316 321 326 329 332 334 328 330 332 337 342 346 353 357 355 359 354 316 212 237 268 286 310 319 320 322 320 319 319 319 318 317 314 312 311 311 311 311 311 310 309 307 305 302
305 310 314 320 327 333 333 333 336 347 353 344 349 0 358 5 10 3 341 317 307 316 322 324 325 323 321 319 318 317 315 314 313 312 311 312 313 313 313 311 310 308 307 305
307 306 304 307 314 325 331 350 4 357 346 320 325 341 342 348 358 352 341 336 332 328 326 325 322 320 319 317 316 314 314 314 313 312 313 315 315 314 313 313 312 311 310 308
290 295 297 298 301 311 321 333 334 315 309 314 311 315 323 330 336 341 341 338 331 326 324 322 320 317 316 315 314 313 313 313 313 314 315 315 315 315 314 314 314 313 312 310
277 278 286 289 292 295 298 303 310 323 319 320 307 308 312 320 323 324 324 323 320 317 317 317 315 313 312 311 311 312 313 314 315 315 316 317 317 317 317 317 316 314 313 312
281 283 285 284 285 285 284 289 299 315 302 309 310 308 308 313 316 316 315 314 312 311 310 311 311 310 309 308 310 312 314 315 315 316 318 320 320 319 319 319 318 317 316 314
281 280 283 284 283 282 281 282 285 287 284 285 297 294 297 302 303 305 305 306 306 305 305 306 307 307 307 307 309 311 315 317 318 319 320 322 322 322 321 321 320 319 318 316
280 278 278 284 282 279 276 276 279 284 287 285 287 289 290 293 294 296 299 301 301 300 301 302 303 306 307 309 312 315 319 320 321 322 323 324 324 323 323 322 321 320 318 317
277 279 292 298 294 284 277 275 276 277 280 281 280 282 287 289 289 293 297 300 301 300 300 301 303 306 309 312 315 319 321 323 324 325 325 325 325 324 324 323 322 321 319 318
269 270 262 257 266 276 280 279 277 276 277 276 273 272 281 286 291 296 299 299 299 299 301 302 305 308 311 315 319 322 323 324 325 326 326 326 326 325 324 324 323 322 320 319
270 272 271 270 274 276 275 276 278 277 271 266 267 273 280 286 294 299 302 301 301 301 302 304 306 310 314 318 322 324 325 326 326 326 326 326 326 325 325 324 323 322 320 319
270 270 269 272 277 279 277 277 277 274 271 269 270 275 280 289 296 300 302 302 301 301 302 305 308 312 315 319 322 324 325 326 326 326 326 326 326 326 325 325 324 323 321 320
270 269 268 268 272 278 283 278 274 271 269 269 272 277 286 293 297 299 300 300 300 300 303 307 310 313 316 319 321 323 324 324 324 325 325 326 326 326 326 325 324 323 322 321
267 266 265 265 268 272 270 273 276 273 272 274 279 285 292 295 298 298 298 299 299 300 303 307 310 313 316 319 320 321 322 323 324 325 325 326 327 327 327 327 326 324 323 321
261 261 262 261 264 271 270 274 278 276 277 280 284 287 291 295 297 297 296 297 298 300 303 306 309 313 315 317 318 319 320 321 322 323 325 326 327 328 328 327 327 325 324 322
257 256 258 257 253 255 261 268 275 279 284 281 284 287 290 293 295 296 296 296 297 300 303 306 309 312 314 315 315 316 318 319 321 322 325 326 327 328 328 328 327 326 325 324
257 256 255 257 258 259 260 267 273 277 276 280 285 288 290 291 293 294 295 297 298 300 303 306 308 310 312 313 314 314 316 318 320 322 324 326 327 327 328 328 327 327 326 325
257 256 256 256 260 259 263 267 268 272 278 284 286 288 289 291 293 294 296 298 299 301 303 305 307 308 310 312 312 313 314 316 319 321 323 324 325 326 327 328 327 327 327 325
255 252 253 253 255 259 264 268 270 274 279 284 287 289 291 292 295 296 298 299 300 302 303 305 306 307 308 310 310 311 313 315 318 321 323 324 325 325 327 328 328 328 327 326
259 256 256 258 259 262 267 270 273 276 280 283 286 289 290 292 294 296 298 299 300 301 302 304 305 305 306 307 308 310 312 314 317 320 321 322 323 324 325 327 327 327 327 326
258 260 259 261 263 266 269 271 273 276 280 282 285 287 288 290 292 293 294 296 298 299 301 302 303 302 303 304 304 305 308 311 314 317 319 321 322 323 324 325 326 326 326 325
259 260 261 262 266 267 270 272 275 277 279 281 283 285 287 288 290 292 293 294 295 297 299 300 300 299 299 301 301 302 306 309 311 314 317 318 320 321 322 324 325 325 324 324
Height
5883 5883 5881 5880 5878 5877 5875 5874 5873 5871 5870 5869 5868 5867 5866 5866 5866 5867 5867 5868 5869 5870 5870 5870 5870 5870 5869 5868 5868 5867 5866 5864 5862 5861 5859 5857 5854 5852 5850 5847 5845 5843 5841 5839
5884 5883 5881 5879 5877 5875 5874 5873 5872 5870 5868 5867 5866 5864 5863 5862 5862 5862 5863 5863 5865 5866 5866 5867 5867 5867 5866 5865 5865 5864 5862 5861 5859 5857 5854 5852 5849 5847 5844 5842 5839 5837 5834 5832
5884 5883 5880 5878 5877 5875 5874 5873 5871 5869 5868 5866 5865 5863 5861 5859 5858 5858 5859 5860 5861 5863 5864 5864 5864 5864 5863 5863 5862 5860 5858 5856 5854 5852 5850 5847 5844 5841 5838 5836 5833 5831 5828 5826
5883 5881 5880 5878 5876 5874 5873 5872 5870 5869 5868 5866 5865 5863 5860 5858 5857 5857 5858 5859 5860 5861 5862 5862 5861 5861 5861 5860 5859 5857 5855 5852 5850 5847 5845 5842 5839 5836 5833 5830 5827 5824 5822 5819
5882 5880 5879 5877 5876 5874 5872 5871 5869 5868 5867 5866 5865 5863 5861 5858 5857 5857 5858 5858 5859 5860 5860 5860 5859 5859 5858 5857 5855 5853 5851 5849 5846 5843 5840 5837 5834 5831 5828 5825 5822 5819 5816 5813
5880 5879 5877 5876 5875 5873 5871 5871 5869 5868 5868 5868 5866 5864 5862 5859 5858 5858 5858 5858 5859 5859 5858 5858 5857 5856 5855 5854 5852 5850 5848 5845 5842 5839 5836 5833 5830 5826 5823 5820 5816 5813 5810 5807
5879 5877 5876 5875 5874 5872 5871 5871 5872 5871 5870 5868 5866 5864 5864 5861 5859 5859 5858 5858 5857 5857 5857 5856 5855 5854 5853 5851 5849 5847 5845 5842 5839 5835 5832 5829 5825 5821 5818 5814 5811 5807 5804 5801
5878 5877 5874 5873 5873 5872 5871 5871 5872 5872 5871 5868 5865 5864 5863 5861 5860 5859 5858 5857 5857 5856 5855 5854 5853 5852 5850 5849 5846 5844 5841 5838 5835 5831 5828 5824 5821 5817 5813 5809 5806 5802 5798 5795
5876 5875 5873 5871 5871 5871 5870 5869 5869 5869 5868 5868 5866 5863 5862 5860 5859 5858 5857 5856 5856 5855 5853 5852 5851 5849 5848 5846 5843 5840 5837 5834 5831 5827 5824 5820 5816 5812 5808 5804 5800 5796 5792 5788
5873 5872 5871 5870 5869 5869 5869 5868 5868 5868 5867 5868 5866 5863 5862 5859 5858 5857 5856 5855 5854 5853 5851 5850 5848 5846 5844 5842 5840 5837 5834 5830 5827 5823 5819 5815 5811 5807 5803 5799 5795 5790 5786 5781
5870 5870 5869 5868 5867 5867 5867 5866 5865 5866 5865 5866 5866 5865 5860 5858 5857 5855 5854 5853 5852 5850 5849 5847 5845 5843 5841 5839 5836 5833 5830 5826 5822 5818 5814 5810 5806 5802 5797 5793 5788 5783 5779 5774
5867 5867 5867 5866 5864 5864 5864 5863 5863 5864 5863 5862 5863 5864 5857 5856 5854 5853 5852 5851 5849 5848 5846 5844 5842 5840 5838 5835 5832 5829 5825 5821 5817 5813 5809 5805 5800 5796 5791 5786 5781 5776 5771 5766
5864 5865 5865 5865 5864 5862 5861 5860 5860 5860 5860 5859 5860 5862 5855 5853 5852 5851 5849 5848 5846 5845 5843 5841 5839 5836 5834 5831 5828 5824 5820 5816 5812 5808 5803 5799 5794 5790 5785 5779 5774 5769 5763 5758
5861 5861 5863 5864 5862 5859 5858 5857 5856 5856 5857 5857 5857 5856 5852 5850 5849 5848 5846 5845 5843 5841 5839 5837 5835 5832 5830 5826 5823 5819 5815 5811 5806 5802 5798 5793 5788 5783 5778 5772 5767 5761 5755 5749
5857 5858 5857 5857 5856 5855 5854 5854 5853 5853 5852 5852 5852 5851 5849 5847 5846 5844 5843 5841 5839 5837 5835 5833 5831 5828 5825 5822 5818 5814 5810 5805 5801 5796 5792 5787 5782 5776 5771 5765 5759 5753 5747 5740
5853 5853 5853 5853 5852 5851 5851 5850 5849 5849 5848 5848 5847 5847 5845 5843 5842 5840 5839 5837 5835 5833 5831 5829 5826 5823 5820 5816 5813 5808 5804 5800 5795 5791 5786 5781 5775 5770 5764 5758 5751 5745 5738 5731
5849 5849 5849 5849 5849 5848 5848 5847 5845 5845 5844 5844 5844 5843 5841 5839 5838 5836 5834 5833 5830 5828 5826 5824 5821 5818 5815 5811 5807 5803 5799 5794 5790 5785 5780 5774 5769 5763 5756 5750 5743 5736 5729 5722
5844 5844 5844 5844 5845 5844 5847 5842 5842 5841 5840 5840 5839 5838 5836 5835 5833 5832 5830 5828 5826 5824 5821 5819 5816 5813 5809 5806 5801 5797 5793 5788 5784 5779 5773 5768 5762 5755 5749 5742 5735 5728 5720 5712
5839 5840 5840 5841 5841 5841 5841 5839 5838 5837 5837 5836 5835 5833 5832 5830 5829 5827 5825 5823 5821 5819 5816 5813 5810 5807 5804 5800 5795 5791 5787 5782 5778 5772 5767 5761 5755 5748 5741 5734 5726 5719 5711 5703
5834 5835 5836 5836 5836 5838 5838 5835 5834 5835 5833 5831 5830 5828 5827 5825 5824 5822 5820 5818 5815 5813 5810 5808 5804 5801 5797 5793 5789 5785 5781 5776 5771 5766 5760 5754 5747 5740 5733 5725 5718 5710 5702 5693
5830 5830 5830 5831 5831 5833 5831 5830 5830 5831 5830 5827 5825 5823 5822 5820 5819 5817 5814 5812 5809 5807 5804 5801 5798 5794 5791 5787 5782 5778 5774 5769 5764 5758 5752 5746 5739 5732 5725 5717 5709 5701 5693 5684
5824 5825 5825 5825 5827 5829 5824 5825 5825 5824 5822 5820 5819 5817 5816 5814 5812 5810 5808 5805 5803 5800 5797 5794 5791 5787 5783 5779 5775 5771 5767 5762 5756 5751 5744 5738 5731 5723 5716 5708 5700 5691 5683 5675
5817 5818 5818 5819 5821 5818 5818 5818 5817 5817 5816 5814 5812 5811 5809 5807 5805 5803 5801 5798 5795 5793 5790 5787 5783 5779 5775 5771 5767 5763 5758 5753 5747 5742 5736 5729 5722 5714 5706 5698 5690 5682 5674 5666
5808 5809 5810 5811 5811 5810 5811 5810 5810 5809 5808 5807 5805 5804 5802 5800 5798 5796 5793 5791 5788 5785 5782 5778 5775 5771 5767 5763 5758 5754 5749 5744 5738 5733 5727 5720 5712 5705 5697 5689 5681 5673 5665 5658
5801 5802 5803 5803 5803 5803 5803 5802 5802 5801 5800 5799 5797 5796 5794 5792 5790 5788 5785 5783 5780 5776 5773 5770 5766 5762 5758 5753 5749 5744 5740 5734 5729 5723 5717 5710 5703 5696 5688 5680 5672 5664 5657 5650
5794 5794 5796 5795 5795 5795 5795 5794 5793 5792 5791 5790 5789 5787 5785 5783 5781 5779 5776 5774 5770 5767 5764 5760 5757 5752 5748 5744 5739 5734 5729 5724 5719 5713 5707 5700 5693 5686 5678 5671 5663 5655 5649 5641